TimeCET,TemperatureF,Dew PointF,Humidity,Sea Level PressureIn,VisibilityMPH,Wind Direction,Wind SpeedMPH,Gust SpeedMPH,PrecipitationIn,Events,Conditions,WindDirDegrees,DateUTC
12:55 AM,57.2,48.2,72,29.59,6.2,East,5.8,-,N/A,,Partly Cloudy,90,2012-11-01 23:55:00
1:00 AM,56,48,66,29.60,12,East,5.8,,,,Scattered Clouds,90,2012-11-02 00:00:00
1:55 AM,55.4,48.2,77,29.59,6.2,East,2.3,-,N/A,,Scattered Clouds,90,2012-11-02 00:55:00
2:55 AM,55.4,50.0,82,29.59,6.2,ENE,1.2,-,N/A,,Mostly Cloudy,70,2012-11-02 01:55:00
3:55 AM,55.4,50.0,82,29.59,6.2,East,2.3,-,N/A,,Partly Cloudy,80,2012-11-02 02:55:00
4:55 AM,55.4,51.8,88,29.62,6.2,Calm,Calm,-,N/A,,Partly Cloudy,0,2012-11-02 03:55:00
5:55 AM,55.4,50.0,82,29.62,6.2,Calm,Calm,-,N/A,,Scattered Clouds,0,2012-11-02 04:55:00
6:55 AM,55.4,50.0,82,29.62,6.2,East,2.3,-,N/A,,Partly Cloudy,90,2012-11-02 05:55:00
7:00 AM,55,50,79,29.62,12,East,2.3,,,,Scattered Clouds,90,2012-11-02 06:00:00
7:55 AM,59.0,50.0,72,29.62,6.2,East,2.3,-,N/A,,Partly Cloudy,100,2012-11-02 06:55:00
8:55 AM,59.0,50.0,72,29.65,6.2,East,3.5,-,N/A,,Scattered Clouds,90,2012-11-02 07:55:00
9:55 AM,66.2,51.8,60,29.65,6.2,South,1.2,-,N/A,,Scattered Clouds,170,2012-11-02 08:55:00
10:55 AM,66.2,51.8,60,29.68,6.2,Calm,Calm,-,N/A,,Scattered Clouds,0,2012-11-02 09:55:00
11:55 AM,69.8,53.6,56,29.71,6.2,WSW,3.5,-,N/A,,Partly Cloudy,250,2012-11-02 10:55:00
12:55 PM,69.8,50.0,49,29.71,-9999.0,SW,1.2,-,N/A,,Clear,220,2012-11-02 11:55:00
1:00 PM,70,50,39,29.72,12,SW,1.2,,,,Clear,220,2012-11-02 12:00:00
1:55 PM,69.8,51.8,53,29.71,-9999.0,SSW,2.3,-,N/A,,Clear,210,2012-11-02 12:55:00
2:55 PM,68.0,53.6,60,29.74,6.2,SW,2.3,-,N/A,,Partly Cloudy,230,2012-11-02 13:55:00
3:55 PM,66.2,51.8,60,29.77,-9999.0,SSW,1.2,-,N/A,,Clear,210,2012-11-02 14:55:00
4:55 PM,60.8,51.8,72,29.77,-9999.0,SW,1.2,-,N/A,,Clear,220,2012-11-02 15:55:00
5:55 PM,57.2,50.0,77,29.80,-9999.0,East,1.2,-,N/A,,Clear,80,2012-11-02 16:55:00
6:55 PM,55.4,50.0,82,29.83,-9999.0,East,2.3,-,N/A,,Clear,80,2012-11-02 17:55:00
7:00 PM,55,50,78,29.83,12,East,2.3,,,,,80,2012-11-02 18:00:00
7:55 PM,55.4,46.4,72,29.83,-9999.0,East,3.5,-,N/A,,Clear,80,2012-11-02 18:55:00
8:55 PM,57.2,44.6,63,29.86,-9999.0,East,4.6,-,N/A,,Clear,80,2012-11-02 19:55:00
9:55 PM,57.2,44.6,63,29.86,-9999.0,East,2.3,-,N/A,,Clear,90,2012-11-02 20:55:00
10:55 PM,57.2,46.4,67,29.86,-9999.0,Calm,Calm,-,N/A,,Clear,0,2012-11-02 21:55:00
11:55 PM,53.6,48.2,82,29.86,-9999.0,ENE,2.3,-,N/A,,Clear,60,2012-11-02 22:55:00